Location: Unspecified
(56.5167°N, 0.0000°E)
Time: 15:05:29
(UTC+02:00)

Resurs 1-4 Rocket - Visible Passes

Search period start: 03 August 2020 00:00
Search period end: 13 August 2020 00:00
Orbit: 800 x 814 km, 98.6° (Epoch: 02 August)

Date Brightness Start Highest point End Pass type
(mag) Time Alt. Az. Time Alt. Az. Time Alt. Az.
03 Aug 4.5 01:51:41 10° ENE 01:53:02 11° E 01:54:23 10° E visible
03 Aug 2.6 03:28:55 10° NNE 03:34:08 53° E 03:38:17 16° S visible
03 Aug 3.1 05:09:02 10° N 05:13:50 36° WNW 05:18:35 10° WSW visible
04 Aug 3.2 03:04:27 10° NNE 03:09:21 36° E 03:13:17 15° SSE visible
04 Aug 2.6 04:44:16 10° N 04:49:22 50° WNW 04:54:22 10° SW visible
05 Aug 3.7 02:40:09 10° NE 02:44:29 25° E 02:48:18 12° SE visible
05 Aug 2.2 04:19:32 10° NNE 04:24:51 72° WNW 04:29:23 14° SSW visible
06 Aug 4.2 02:16:07 10° NE 02:19:31 17° E 02:22:55 10° SE visible
06 Aug 2.2 03:54:54 10° NNE 04:00:14 80° ESE 04:04:23 17° SSW visible
07 Aug 4.5 01:52:55 10° ENE 01:54:28 11° E 01:56:00 10° E visible
07 Aug 2.6 03:30:19 10° NNE 03:35:32 55° E 03:39:24 18° S visible
07 Aug 3.1 05:10:27 10° N 05:15:13 35° WNW 05:19:57 10° WSW visible
08 Aug 3.1 03:05:51 10° NNE 03:10:46 37° E 03:14:25 16° SSE visible
08 Aug 2.6 04:45:41 10° N 04:50:46 49° WNW 04:55:29 12° SW visible
09 Aug 3.7 02:41:32 10° NE 02:45:54 25° E 02:49:25 14° SE visible
09 Aug 2.2 04:20:58 10° NNE 04:26:14 70° WNW 04:30:30 16° SSW visible
10 Aug 4.1 02:17:28 10° NE 02:20:57 17° E 02:24:24 10° SE visible
10 Aug 2.1 03:56:18 10° NNE 04:01:38 82° ESE 04:05:30 19° SSW visible
11 Aug 4.4 01:54:10 10° ENE 01:55:54 11° E 01:57:36 10° E visible
11 Aug 2.5 03:31:43 10° NNE 03:36:57 56° E 03:40:31 20° S visible
11 Aug 3.1 05:11:52 10° N 05:16:36 34° WNW 05:21:18 10° WSW visible
12 Aug 3.1 03:07:14 10° NNE 03:12:10 38° E 03:15:31 18° SSE visible
12 Aug 2.6 04:47:05 10° N 04:52:09 48° WNW 04:56:35 13° SW visible
